Regional Weather Roundup
Issued by NWS

Home | Current Version | Previous Version | Graphics & Text | Print | Product List | Glossary On
Versions: 1 2 3 4 5 6 7 8 9 10 11 12 13 14 15 16 17 18 19 20 21 22 23 24 25 26 27 28 29 30 31 32 33 34 35 36 37 38 39 40 41 42 43 44 45 46 47 48 49 50
000
ASUS43 KFSD 210710
RWRSD

WEATHER ROUNDUP FOR SOUTH DAKOTA
NATIONAL WEATHER SERVICE SIOUX FALLS SD
200 AM CDT SAT APR 21 2018

NOTE: "FAIR" INDICATES FEW OR NO CLOUDS BELOW 12,000 FEET WITH NO
SIGNIFICANT WEATHER AND/OR OBSTRUCTIONS TO VISIBILITY.


SDZ001>005-009-010-012>017-210800-
NORTHWEST AND NORTH CENTRAL SOUTH DAKOTA

CITY           SKY/WX    TMP DP  RH WIND       PRES   REMARKS
BUFFALO          N/A     41  37  86 S22G28    30.12
FAITH            N/A     40  40 100 S20       30.26R
MOBRIDGE       CLOUDY    43  38  82 SE12      30.27S
$$

SDZ012>016-024>037-041>051-057-063-072>074-210800-
SOUTHWEST AND SOUTH CENTRAL SOUTH DAKOTA

CITY           SKY/WX    TMP DP  RH WIND       PRES   REMARKS
RAPID CTY ARPT CLOUDY    38  37  97 SE16      30.25R
PIERRE         CLOUDY    41  40  96 S7        30.30R
CUSTER         FOG      N/A N/A N/A VRB7      30.20R VSB 1/4
ELLSWORTH AFB  CLOUDY    39  39 100 S17       30.23S
PHILIP         LGT RAIN  41  40  96 CALM      30.30R
PINE RIDGE     CLOUDY    39  37  92 E8        30.26R
SPEARFISH      FAIR      36  36 100 CALM      30.17S
WINNER         CLOUDY    40  35  83 SE7       30.30S
$$

SDZ004>011-016>023-039-040-210800-
NORTHEAST SOUTH DAKOTA

CITY           SKY/WX    TMP DP  RH WIND       PRES   REMARKS
ABERDEEN       CLOUDY    42  38  85 S6        30.35S
WATERTOWN      CLOUDY    37  33  85 S5        30.35R
BROOKINGS      CLOUDY    38  32  79 S3        30.36R
SISSETON         N/A     35  34  96 SE3       30.36S
$$

SDZ017-020-022-023-036>040-048>070-210800-
SOUTHEAST SOUTH DAKOTA

CITY           SKY/WX    TMP DP  RH WIND       PRES   REMARKS
SIOUX FALLS    CLOUDY    39  32  76 CALM      30.37R
HURON          CLOUDY    40  36  86 SE7       30.34F
CHAMBERLAIN    DRIZZLE   42  42 100 SE7       30.31R
MITCHELL       CLOUDY    40  37  89 CALM      30.35R
YANKTON        CLOUDY    41  36  82 E8        30.36S
$$

ABBREVIATIONS USED IN REMARKS
   TC - TEMPERATURE IN CELSIUS
  WCI - WIND CHILL INDEX
   HX - HEAT INDEX
  VSB - VISIBILITY




USA.gov is the U.S. government's official web portal to all federal, state and local government web resources and services.